星链-35880(STARLINK-35880)

导读

STARLINK-35880是美国(US)于2025年12月17日发射的星链卫星,隶属于SpaceX公司的星链(Starlink)星座计划。该计划旨在构建全球卫星互联网星座,为全球范围提供低延迟、高速率的宽带互联网服务,此卫星是星链星座扩容部署过程中的一颗卫星,将助力完善星链网络的覆盖能力。

基本信息
目录编号:
67187
目录名称:
STARLINK-35880
国际标识:
2025-303AA
轨道中心:
EARTH
卫星名称:
星链-35880
卫星全名:
星链-35880(STARLINK-35880)
卫星状态:
在轨 (已飞行178 天)
发射日期:
2025-12-17 UTC
国别 :
美国 (US)
星等 :
--
轨道信息
数据来源 国际轨道数据
星历时间: 2026-06-12T13:03:20+0800
1天前
查看轨道信息
半长轴: 6861.149km
偏心率: 0.0000743
轨道倾角: 43.003°
近地点辐角 261.434°
升交点赤经 136.670°
平近点角 98.642°
近地点: 482.502km
远地点: 483.522km
周期: 94.266分钟
每日圈数: 15.275924
详细信息
固有亮度:
5
最大亮度:
2.5
卫星平台:
Starlink V1.0
覆盖范围:
全球
运营商:
太空探索技术公司
运营商所在国:
美国
制造商(研发单位):
太空探索技术公司
制造商所在国:
美国
使用方式:
暂无
卫星简介
Starlink 计划是 SpaceX 推出的全球卫星互联网项目,通过发射低轨道卫星,为全球尤其是偏远地区提供高速、低延迟的互联网服务。自 2019 年起,Starlink 已部署数千颗卫星,旨在缩小全球数字鸿沟,推动互联网普及。该项目还为军事、航空等行业提供通信支持,带来广泛经济效益。
2D轨道图
3D轨道图
轨道高度分析图
轨道倾角分析图
轨道综合分析图
查看轨道综合分析图